Location: Frizzleburg
(41.0764°N, 80.4548°W)
Time: 19:39:34
(UTC+00:00)

ATLAS 5 CENTAUR R/B - Pass Details

Date: 17 November 2019
Orbit: 563 x 1096 km, 63.3° (Epoch: 09 December)

Event Time Altitude Azimuth Distance (km) Brightness Sun altitude
Rises 00:02:26 0° 316° (NW) 3,437 5.9 -22.6°
Reaches altitude 10° 00:05:00 10° 307° (NW) 2,579 5.3 -23.1°
Maximum altitude 00:10:24 34° 245° (WSW) 1,555 4.1 -24.1°
Drops below altitude 10° 00:16:21 10° 183° (S) 2,848 5.0 -25.2°
Sets 00:19:20 0° 175° (S) 3,844 5.6 -25.8°
